Temperature
19 19 20 20 20 19 19 19 19 18 18 18 19 18 18 18 19 18 18 19 19 19 19 18 19 19 19 18 18 18 18 18 19 18 18 18 18 19 19 18 19 19 19
20 20 20 20 20 19 19 19 19 19 18 18 19 19 18 18 18 18 19 19 19 19 18 18 19 19 18 18 18 18 18 18 18 18 18 18 19 19 19 18 19 19 19
20 20 20 20 20 19 19 19 19 19 18 18 19 19 18 18 18 19 18 19 18 18 18 18 19 19 18 18 18 18 18 18 18 18 18 18 19 19 19 19 19 19 19
20 20 20 20 20 20 19 19 19 18 18 18 18 19 19 19 19 18 18 18 18 18 18 18 18 19 18 18 18 18 17 18 18 18 18 18 19 19 19 18 19 18 18
20 20 20 20 20 19 19 19 19 18 18 18 18 18 19 19 19 17 17 17 17 18 18 18 18 19 18 18 17 17 17 17 18 18 18 18 18 18 19 19 19 18 18
19 19 19 20 20 19 19 19 19 19 18 18 18 18 19 19 18 18 17 17 17 18 18 18 18 19 18 18 17 17 17 17 17 18 18 19 18 18 18 18 18 18 18
20 19 19 19 19 19 19 19 18 18 18 18 18 18 18 18 18 18 18 17 17 18 18 19 19 19 18 17 17 17 17 17 17 18 18 19 18 18 18 18 18 18 18
20 20 19 19 19 19 19 19 18 18 18 18 18 18 18 18 18 18 18 18 18 18 18 19 19 19 18 16 17 17 17 17 17 17 18 18 18 18 18 18 18 18 18
20 20 20 19 19 19 19 19 19 18 18 18 18 18 18 18 18 18 18 17 17 18 18 18 18 18 17 16 17 17 17 17 17 17 17 18 18 18 18 18 17 18 18
20 20 20 19 19 19 19 19 19 18 18 18 18 18 18 18 17 18 17 17 17 18 18 18 17 17 16 17 17 17 17 17 17 17 17 17 18 18 18 18 18 17 18
20 20 20 20 19 19 19 18 18 18 18 18 18 18 18 18 18 18 17 18 17 18 17 17 17 17 16 16 17 16 17 17 16 17 17 17 17 17 17 17 17 17 18
20 19 20 20 19 19 19 19 18 18 18 18 18 18 18 18 18 18 17 17 18 17 17 16 16 16 16 16 16 16 17 17 17 17 17 17 17 17 17 17 17 17 17
20 20 20 20 20 19 18 18 18 18 18 17 17 17 18 17 17 17 17 17 17 17 17 17 16 16 16 16 16 16 17 17 17 17 17 17 17 17 17 17 17 17 17
20 20 20 20 19 19 18 18 18 18 17 17 17 17 18 18 17 17 17 17 17 17 17 16 16 16 16 16 16 16 17 17 17 17 16 16 17 17 17 17 17 17 17
21 21 20 20 19 19 19 18 18 18 18 17 17 17 17 17 17 16 16 16 17 17 17 16 16 16 16 16 16 16 16 16 16 16 16 16 16 16 16 16 16 16 17
21 21 20 19 19 19 19 19 18 17 17 17 18 17 17 17 17 16 16 16 17 17 17 16 16 16 16 16 16 16 16 16 15 16 16 16 16 16 16 16 16 17 17
21 21 20 19 19 19 18 19 18 18 17 17 17 18 17 17 17 17 17 17 17 17 17 16 16 16 16 16 16 16 16 15 15 15 15 16 16 16 16 16 16 16 16
22 20 20 20 20 21 19 19 19 18 18 17 17 17 18 17 17 17 17 17 18 17 17 17 17 16 16 16 16 16 15 15 15 15 15 15 16 16 16 16 16 15 16
22 20 20 21 21 20 19 19 19 18 17 18 17 17 17 17 17 17 17 17 18 18 17 17 17 16 16 16 15 16 15 15 15 15 15 15 15 15 16 16 16 16 16
21 21 20 20 20 19 19 19 20 18 17 17 17 17 17 17 17 17 17 18 18 18 18 17 17 16 16 16 16 15 15 15 15 15 15 14 14 15 15 15 16 16 16
20 20 20 20 19 19 18 19 19 18 17 17 17 17 17 17 17 17 17 18 18 17 17 17 17 16 16 16 16 15 15 15 14 14 14 14 14 15 15 15 16 16 16
20 19 19 19 19 19 19 19 18 18 18 17 17 17 17 17 17 17 18 18 18 17 18 18 17 16 16 16 16 15 14 14 14 14 14 14 14 14 15 15 15 16 16
18 18 18 19 19 19 18 18 18 17 17 17 17 17 17 17 17 17 18 18 18 18 18 18 18 17 16 16 16 16 15 14 14 14 14 14 14 14 15 15 15 15 15
18 17 17 18 18 18 17 17 17 17 16 16 16 17 17 17 17 17 17 17 17 17 18 18 18 17 17 16 16 16 16 16 15 14 13 13 14 14 14 14 14 15 15
18 17 16 16 17 16 16 16 16 16 15 16 16 15 15 16 17 17 17 17 17 17 18 17 17 17 17 17 17 16 16 16 16 15 13 13 13 13 13 14 14 14 14
18 17 16 16 16 16 15 15 15 15 15 15 16 14 15 15 16 17 16 16 17 17 17 17 17 16 17 17 17 17 16 16 16 16 15 13 13 13 13 13 13 13 14
Wind_Speed
5 8 12 12 11 10 10 11 12 12 12 12 12 12 13 12 12 12 11 13 14 17 16 13 13 12 12 11 12 13 12 11 11 9 9 9 10 11 11 11 11 9 9
9 9 11 11 11 11 11 11 12 12 13 13 13 12 12 12 12 13 13 14 14 16 15 13 12 12 11 11 12 14 14 13 12 11 10 9 9 10 10 9 8 9 10
10 10 12 12 11 11 11 11 12 13 15 15 13 12 12 12 13 13 14 14 15 15 14 12 12 11 11 11 12 13 13 14 15 15 12 9 8 9 9 7 7 10 10
10 10 10 12 11 11 11 12 12 14 15 14 13 12 12 12 13 13 14 15 15 14 12 10 10 10 11 10 11 12 14 13 14 15 11 8 9 9 8 7 7 9 9
9 10 11 13 12 11 11 12 12 14 14 14 13 13 12 13 13 13 13 15 15 13 11 9 9 9 10 9 10 12 12 13 13 13 10 10 10 10 9 8 8 8 9
9 9 12 13 12 12 12 12 13 14 15 15 14 13 12 12 13 13 12 14 14 12 10 8 7 8 8 9 9 9 10 13 12 12 11 11 12 12 10 9 9 8 9
10 8 11 13 13 13 13 14 13 14 14 15 14 13 12 12 13 13 13 14 13 11 9 8 6 7 8 9 10 11 15 14 11 10 9 10 12 14 12 10 9 8 8
11 8 11 13 14 13 14 15 15 14 14 14 14 13 11 11 13 13 13 13 12 10 8 7 6 8 8 10 13 17 18 15 10 8 8 9 11 13 13 12 10 9 7
9 8 8 10 13 13 14 15 15 14 14 14 13 12 11 11 12 12 12 12 10 9 7 6 6 7 9 11 14 18 18 14 11 8 8 8 10 10 10 11 11 8 7
9 7 5 7 9 10 11 13 14 14 15 15 13 11 10 9 10 10 11 10 10 8 7 4 3 5 9 12 16 17 16 13 11 9 7 7 8 8 8 9 9 9 7
9 7 7 6 7 9 9 12 13 14 15 16 14 12 10 7 7 8 9 10 9 8 6 3 3 7 11 12 15 16 14 11 9 8 7 8 8 8 8 8 8 8 8
11 9 9 9 7 8 9 10 10 11 12 12 11 11 10 8 8 8 10 11 9 7 5 3 3 6 9 10 13 13 11 11 9 8 8 10 10 10 9 9 9 9 9
14 14 13 11 9 7 5 6 6 8 10 10 11 11 11 8 7 6 6 7 6 5 3 2 3 6 7 8 10 10 10 11 11 10 11 11 11 11 10 10 9 10 10
16 17 16 14 12 9 8 5 5 4 5 6 9 12 9 5 4 4 4 5 5 5 3 4 5 6 4 10 13 10 10 10 12 12 13 13 12 12 11 11 10 11 11
17 16 16 16 15 11 11 6 4 4 7 9 10 11 10 5 5 5 4 5 5 5 4 4 4 3 5 9 12 10 8 10 12 12 14 17 16 15 13 12 12 11 11
16 13 13 13 12 9 10 11 9 6 8 9 11 13 13 10 8 5 4 4 6 5 3 4 5 2 3 6 7 8 8 10 11 12 13 16 18 18 17 16 15 15 14
11 7 11 13 15 13 11 13 11 11 11 9 12 15 15 13 10 5 6 6 7 8 7 4 5 4 3 4 6 6 7 8 9 11 12 15 16 17 19 19 19 18 17
18 14 14 16 16 17 16 14 12 9 11 9 11 14 14 14 13 9 6 6 9 10 8 5 4 3 4 5 5 4 5 5 6 7 9 12 14 14 16 18 19 19 20
18 18 15 11 11 12 13 11 11 8 8 7 10 10 11 14 16 12 7 6 10 8 7 8 4 3 4 5 6 5 6 5 4 5 6 8 10 12 12 15 16 17 18
11 11 11 7 5 6 3 3 7 6 6 4 5 8 10 13 15 11 6 7 8 7 8 9 7 3 5 6 6 4 4 5 5 4 4 6 7 10 11 12 13 13 16
8 8 8 8 7 6 3 3 5 5 3 3 4 7 8 10 12 8 7 7 7 7 9 10 6 5 2 3 5 4 5 5 5 4 4 4 6 10 13 13 13 13 12
5 4 3 5 8 8 6 3 3 3 3 3 4 5 9 8 10 11 11 9 9 8 9 9 5 4 3 4 5 4 2 3 3 3 3 5 5 9 10 12 14 14 13
4 4 3 4 5 5 4 3 3 3 2 2 3 4 6 10 9 11 9 9 10 10 9 8 7 6 5 3 4 5 5 4 2 2 2 3 6 6 6 9 12 13 14
4 4 5 5 4 4 6 5 5 4 3 3 3 3 3 7 11 10 10 8 8 8 9 9 9 5 6 6 3 1 3 5 4 3 2 2 3 6 5 5 9 11 12
6 5 5 5 4 4 5 5 5 4 3 4 4 5 4 1 5 6 8 8 7 6 5 5 7 6 5 7 5 4 2 2 3 4 3 2 2 2 4 4 7 8 9
8 7 6 6 6 6 6 5 6 7 8 8 8 5 3 2 1 2 4 3 6 6 4 4 5 7 7 6 5 5 5 4 4 4 4 4 3 1 2 3 4 7 7
Wind_Direction
180 180 170 160 149 140 139 141 141 135 131 128 125 117 110 112 111 106 105 101 104 100 97 95 89 86 82 78 74 76 75 74 79 80 76 77 65 55 62 70 65 73 85
162 169 164 157 148 144 142 141 142 142 135 131 126 120 115 115 115 117 114 108 107 104 103 96 93 90 88 86 77 67 68 73 83 86 76 61 67 72 76 78 74 87 94
146 158 165 152 147 146 143 142 145 142 134 132 128 120 116 116 118 120 118 117 113 107 104 101 97 91 85 83 75 67 74 80 80 75 63 50 64 85 92 92 92 105 102
145 151 157 149 146 146 146 145 146 139 135 133 131 123 119 118 118 119 121 122 116 112 109 103 94 90 87 80 72 71 91 85 78 70 58 51 63 76 94 103 109 110 106
142 149 158 148 146 145 147 147 143 137 134 134 134 128 122 120 116 116 119 123 117 114 109 98 87 84 84 80 69 80 97 90 80 70 55 56 66 72 87 101 107 116 111
136 146 145 146 147 144 144 142 140 139 137 138 137 132 126 122 121 117 119 125 122 114 109 99 87 79 77 76 67 60 96 99 82 69 55 49 59 70 78 87 98 104 105
138 135 140 148 148 146 141 140 141 140 139 141 136 129 127 126 123 121 117 123 122 118 111 98 85 80 80 72 47 56 99 95 77 66 58 54 61 67 70 80 89 88 92
135 133 143 150 149 146 144 145 144 145 145 143 133 129 127 125 123 121 118 122 121 111 102 96 91 92 86 65 55 81 97 88 72 56 53 60 67 66 62 66 75 81 85
133 139 137 148 149 149 150 148 147 148 150 148 141 137 131 124 120 121 124 128 125 112 99 95 101 101 83 60 70 87 85 83 70 51 47 52 68 68 62 57 57 66 72
142 137 129 143 148 149 157 156 154 155 157 156 150 147 140 131 126 129 132 137 140 121 105 96 86 80 65 56 85 87 77 69 61 47 41 60 71 78 71 59 52 52 58
146 149 156 153 149 151 159 166 165 165 166 162 161 159 148 136 139 139 145 151 146 130 117 97 56 41 41 51 87 84 76 68 56 43 38 58 72 80 77 68 62 55 54
161 174 173 165 159 159 167 167 169 169 163 163 168 163 157 158 160 162 168 159 151 143 124 87 33 28 29 53 90 87 80 70 49 34 45 58 64 73 77 71 65 62 59
171 178 183 176 171 165 163 156 164 166 160 165 176 171 165 167 178 175 165 165 158 149 124 78 349 4 13 79 102 91 81 71 56 38 46 59 63 65 66 66 64 62 61
175 183 181 177 174 171 156 158 158 169 159 168 188 185 172 165 167 176 180 181 180 172 144 70 13 3 65 112 111 96 81 75 63 50 49 58 61 60 57 56 61 63 62
179 177 182 176 178 171 154 157 155 177 177 179 191 197 188 164 169 180 190 189 200 200 165 109 65 59 126 108 105 108 93 80 70 60 55 56 58 62 63 62 61 65 67
174 172 170 177 176 176 169 165 169 178 182 181 190 199 199 178 170 173 184 189 198 207 144 136 102 124 101 105 104 112 105 92 84 69 64 59 56 58 60 60 59 62 66
142 143 148 175 186 180 193 177 170 182 182 187 193 198 192 185 180 149 187 193 187 181 154 142 118 151 109 100 104 113 114 112 107 86 74 68 58 53 55 55 54 58 64
143 163 171 186 192 182 185 188 175 176 178 187 190 200 192 182 177 149 171 188 180 165 150 147 129 134 118 109 105 115 109 127 130 111 91 81 72 60 54 55 48 47 52
166 176 176 185 183 185 183 181 171 168 186 191 185 191 190 165 172 157 169 179 170 161 150 153 130 131 125 119 121 117 108 109 124 126 113 100 90 78 63 58 51 48 48
177 182 175 174 172 170 158 156 154 161 193 205 188 188 190 166 172 155 159 165 161 149 142 144 133 126 134 141 118 91 80 86 96 104 106 94 92 85 69 57 50 45 46
161 180 185 173 158 139 146 150 153 171 181 224 219 192 193 175 183 143 153 153 151 150 153 136 118 120 108 118 102 70 35 37 59 72 87 92 90 93 78 65 56 48 40
143 167 194 173 153 161 163 161 126 155 189 205 203 178 183 177 170 148 151 155 153 154 139 121 114 129 137 180 129 115 76 15 13 32 78 103 100 99 82 71 62 50 42
133 161 172 182 166 156 137 158 129 148 194 150 149 174 162 145 140 136 145 146 154 158 152 152 151 168 146 193 182 141 150 186 167 37 39 84 110 100 94 84 68 54 46
148 143 149 172 186 177 166 184 180 175 199 174 165 150 118 143 139 148 146 141 148 156 166 176 168 168 149 164 198 135 122 153 147 136 67 40 83 108 113 95 84 68 56
163 179 188 176 190 215 201 198 179 146 115 107 107 92 77 38 121 149 147 145 153 146 152 179 173 169 164 171 173 145 122 118 136 133 152 157 80 81 113 109 105 88 66
174 183 184 182 202 199 197 192 163 153 135 124 107 94 101 185 57 61 91 146 155 146 157 186 204 194 194 182 187 169 160 166 179 151 147 156 136 126 124 121 119 103 78
Height
1514 1515 1516 1517 1518 1518 1518 1518 1519 1520 1521 1522 1523 1524 1525 1526 1526 1526 1527 1527 1527 1527 1529 1529 1529 1530 1530 1530 1531 1531 1531 1530 1530 1531 1532 1531 1531 1532 1533 1533 1533 1533 1533
1514 1515 1516 1517 1517 1518 1519 1519 1519 1520 1521 1523 1524 1525 1525 1526 1526 1526 1527 1528 1528 1528 1530 1531 1530 1531 1531 1531 1531 1531 1531 1531 1531 1533 1534 1533 1532 1532 1533 1532 1534 1534 1534
1514 1514 1515 1516 1517 1518 1519 1520 1520 1521 1522 1523 1524 1525 1526 1526 1527 1527 1528 1529 1529 1529 1531 1532 1532 1532 1532 1532 1532 1532 1532 1532 1533 1534 1534 1535 1534 1534 1534 1535 1535 1536 1535
1514 1515 1516 1516 1517 1517 1518 1519 1520 1522 1523 1524 1525 1526 1526 1527 1528 1529 1529 1530 1530 1531 1532 1533 1533 1533 1533 1533 1533 1533 1535 1535 1534 1535 1535 1535 1535 1535 1535 1536 1536 1537 1537
1515 1515 1515 1515 1516 1517 1518 1519 1520 1522 1523 1524 1525 1527 1527 1528 1528 1529 1530 1531 1531 1532 1533 1533 1534 1534 1534 1535 1535 1536 1536 1537 1536 1536 1537 1536 1535 1535 1536 1537 1537 1537 1537
1514 1515 1516 1515 1516 1517 1518 1519 1520 1522 1523 1525 1526 1527 1528 1529 1529 1530 1531 1531 1532 1533 1534 1534 1535 1535 1536 1536 1537 1537 1537 1538 1538 1538 1538 1537 1537 1536 1537 1538 1538 1538 1538
1514 1515 1516 1516 1516 1517 1519 1520 1522 1523 1525 1526 1527 1529 1530 1530 1530 1531 1532 1533 1533 1534 1535 1535 1536 1536 1537 1538 1538 1538 1537 1538 1539 1538 1538 1538 1538 1538 1538 1539 1539 1538 1538
1515 1516 1517 1517 1518 1519 1520 1521 1523 1524 1526 1527 1528 1530 1531 1532 1531 1532 1534 1534 1535 1536 1536 1537 1537 1538 1539 1539 1539 1540 1539 1540 1540 1539 1538 1539 1539 1539 1540 1540 1540 1539 1540
1515 1516 1517 1518 1519 1520 1521 1522 1523 1525 1526 1528 1529 1531 1533 1533 1533 1534 1535 1536 1537 1538 1539 1539 1539 1539 1540 1540 1540 1541 1541 1541 1541 1540 1539 1539 1539 1539 1540 1540 1540 1540 1540
1515 1516 1517 1519 1520 1521 1522 1523 1523 1524 1525 1528 1529 1532 1533 1535 1535 1535 1536 1538 1539 1540 1540 1541 1542 1543 1543 1543 1542 1542 1542 1541 1541 1541 1540 1540 1540 1540 1540 1541 1541 1541 1541
1515 1516 1517 1518 1520 1521 1523 1523 1524 1524 1526 1527 1529 1530 1533 1535 1536 1536 1537 1539 1540 1542 1542 1543 1543 1545 1544 1544 1543 1543 1543 1541 1541 1541 1542 1541 1541 1541 1541 1541 1542 1542 1542
1514 1515 1516 1517 1518 1520 1521 1523 1524 1525 1526 1527 1529 1530 1532 1534 1536 1537 1538 1539 1541 1543 1544 1545 1546 1546 1546 1545 1545 1545 1544 1543 1543 1543 1542 1542 1542 1542 1542 1542 1542 1542 1543
1512 1513 1515 1516 1518 1519 1521 1522 1524 1525 1526 1527 1529 1531 1532 1534 1536 1538 1540 1541 1542 1544 1545 1546 1548 1548 1547 1547 1547 1547 1546 1544 1543 1543 1544 1544 1543 1543 1543 1543 1543 1543 1543
1508 1509 1512 1513 1515 1518 1520 1522 1523 1526 1526 1527 1529 1531 1532 1534 1537 1539 1540 1541 1543 1545 1546 1547 1548 1549 1549 1549 1549 1549 1548 1546 1545 1545 1545 1546 1545 1544 1544 1545 1544 1544 1544
1505 1508 1511 1510 1513 1515 1517 1519 1522 1523 1524 1526 1528 1530 1533 1535 1537 1539 1540 1541 1543 1545 1548 1548 1549 1550 1550 1550 1550 1550 1550 1548 1548 1547 1547 1547 1547 1546 1546 1547 1546 1546 1545
1505 1509 1511 1515 1516 1519 1518 1517 1519 1521 1523 1525 1526 1529 1533 1534 1536 1538 1540 1542 1544 1547 1549 1550 1550 1551 1552 1552 1551 1551 1551 1551 1551 1550 1550 1550 1549 1548 1548 1548 1548 1547 1546
1504 1508 1509 1513 1514 1516 1519 1516 1516 1519 1521 1523 1524 1528 1531 1533 1535 1538 1539 1541 1543 1546 1547 1549 1551 1552 1553 1553 1553 1553 1553 1554 1553 1553 1553 1552 1552 1551 1549 1549 1549 1549 1549
1497 1503 1506 1506 1508 1507 1511 1512 1512 1515 1517 1519 1522 1525 1528 1531 1533 1535 1537 1539 1541 1543 1545 1548 1551 1553 1554 1554 1554 1554 1555 1555 1555 1555 1555 1555 1554 1554 1553 1552 1552 1552 1551
1495 1497 1501 1502 1504 1505 1506 1506 1508 1513 1515 1515 1518 1522 1526 1528 1532 1534 1536 1539 1541 1543 1545 1547 1550 1553 1554 1554 1555 1556 1556 1556 1557 1557 1557 1556 1555 1555 1555 1554 1554 1553 1552
1493 1496 1499 1500 1501 1503 1505 1507 1508 1512 1514 1515 1517 1520 1525 1527 1530 1533 1535 1538 1540 1541 1544 1547 1549 1552 1553 1554 1555 1556 1557 1557 1559 1559 1559 1558 1557 1556 1556 1556 1555 1554 1553
1491 1494 1497 1499 1499 1501 1503 1505 1506 1509 1512 1515 1516 1518 1522 1524 1527 1530 1533 1535 1538 1540 1543 1546 1548 1552 1553 1553 1555 1556 1558 1559 1560 1561 1561 1560 1559 1558 1558 1558 1558 1556 1555
1490 1494 1496 1497 1498 1499 1501 1503 1505 1508 1508 1509 1512 1515 1519 1521 1525 1527 1529 1533 1536 1539 1541 1544 1547 1549 1551 1553 1554 1555 1558 1561 1561 1562 1562 1562 1561 1560 1560 1560 1560 1558 1557
1490 1493 1494 1496 1497 1498 1499 1501 1502 1503 1503 1506 1509 1512 1515 1518 1521 1524 1527 1531 1534 1537 1540 1545 1546 1547 1549 1551 1553 1554 1556 1558 1560 1562 1562 1562 1561 1561 1562 1562 1561 1560 1559
1489 1491 1492 1493 1495 1497 1498 1497 1499 1499 1500 1503 1506 1509 1512 1515 1519 1522 1525 1528 1532 1535 1538 1541 1543 1545 1547 1549 1551 1552 1553 1554 1557 1560 1562 1562 1561 1562 1562 1562 1562 1561 1560
1487 1489 1490 1491 1492 1493 1493 1493 1495 1495 1497 1500 1503 1505 1509 1513 1516 1519 1522 1527 1530 1533 1536 1538 1541 1543 1545 1546 1548 1549 1551 1553 1554 1555 1558 1560 1560 1561 1561 1562 1562 1561 1561
1486 1487 1488 1489 1490 1490 1490 1490 1492 1493 1496 1498 1500 1502 1507 1511 1514 1516 1519 1525 1528 1531 1534 1537 1540 1542 1543 1544 1546 1546 1547 1549 1551 1552 1554 1556 1558 1560 1561 1561 1561 1561 1561